Linden, NJ

1:04 PM EDT on June 21, 2018 (GMT -0400)
Linden

Weather History for KLDJ - August, 2017

Change the Weather History Date:

Sunday, August 13, 2017

  Actual Average (KEWR) Record (KEWR)
Temperature  
Mean Temperature 76 °F -  
Max Temperature 82 °F 83 °F 102 °F (2005)
Min Temperature 69 °F 67 °F 55 °F (1950)
Cooling Degree Days 10    
Growing Degree Days 26 (Base 50)    
Moisture  
Dew Point 62 °F    
Average Humidity 63    
Maximum Humidity 93    
Minimum Humidity 39    
Precipitation  
Precipitation 0.00 in - - ()
Sea Level Pressure  
Sea Level Pressure 29.94 in    
Wind  
Wind Speed 3 mph (NNW)    
Max Wind Speed 13 mph    
Max Gust Speed 18 mph    
Visibility 10 miles    
Events      
Averages and records for this station are not official NWS values.
T = Trace of Precipitation, MM = Missing Value Source: NWS Daily Summary

Daily Weather History Graph

Daily Weather History Graph

Search for Another Location

Airport or City:

Astronomy

Aug. 13, 2017 Rise Set
Actual Time 6:05 AM EDT 7:57 PM EDT
Civil Twilight 5:36 AM EDT 8:26 PM EDT
Nautical Twilight 5:00 AM EDT 9:02 PM EDT
Astronomical Twilight 4:21 AM EDT 9:40 PM EDT
Moon 11:28 PM EDT (8/13) 12:04 PM EDT (8/13)
Length of Visible Light 14h 50m
Length of Day
13h 51m
Waning Gibbous, 65% of the Moon is Illuminated
Aug 13
Waning Gibbous
Aug 14
Last Quarter
Aug 21
New
Aug 29
First Quarter
Sep 6
Full

Hourly Weather History & Observations

Time (EDT) Temp. Heat Index Dew Point Humidity Pressure Visibility Wind Dir Wind Speed Gust Speed Precip Events Conditions
12:15 AM 73.6 °F - 69.8 °F 88% 29.88 in 10.0 mi Calm Calm - N/A   Mostly Cloudy
12:35 AM 73.6 °F - 70.0 °F 88% 29.87 in 10.0 mi Calm Calm - N/A   Mostly Cloudy
12:55 AM 73.2 °F - 69.6 °F 88% 29.86 in 10.0 mi Calm Calm - N/A   Scattered Clouds
1:15 AM 72.9 °F - 69.8 °F 90% 29.87 in 10.0 mi Calm Calm - N/A   Clear
1:35 AM 72.7 °F - 69.8 °F 91% 29.88 in 10.0 mi Calm Calm - N/A   Scattered Clouds
1:55 AM 72.5 °F - 69.4 °F 90% 29.87 in 10.0 mi Calm Calm - N/A   Scattered Clouds
3:15 AM 72.5 °F - 69.8 °F 91% 29.86 in 10.0 mi Calm Calm - N/A   Mostly Cloudy
3:55 AM 71.2 °F - 68.9 °F 92% 29.85 in 10.0 mi Calm Calm - N/A   Scattered Clouds
4:55 AM 70.5 °F - 68.4 °F 93% 29.86 in 10.0 mi Calm Calm - N/A   Clear
5:35 AM 70.2 °F - 68.0 °F 93% 29.87 in 10.0 mi Calm Calm - N/A   Clear
5:55 AM 69.4 °F - 67.1 °F 92% 29.87 in 10.0 mi Calm Calm - N/A   Clear
6:55 AM 69.3 °F - 66.2 °F 90% 29.89 in 10.0 mi Calm Calm - N/A   Clear
7:35 AM 70.7 °F - 65.7 °F 84% 29.91 in 10.0 mi Calm Calm - N/A   Clear
7:55 AM 71.6 °F - 64.6 °F 78% 29.91 in 10.0 mi North 4.6 mph - N/A   Clear
8:15 AM 72.5 °F - 63.7 °F 74% 29.92 in 10.0 mi NNW 8.1 mph - N/A   Clear
8:35 AM 72.9 °F - 62.6 °F 70% 29.93 in 10.0 mi North 10.4 mph 17.3 mph N/A   Clear
9:15 AM 74.7 °F - 61.7 °F 64% 29.93 in 10.0 mi NNW 11.5 mph - N/A   Clear
9:55 AM 76.1 °F - 61.5 °F 60% 29.93 in 10.0 mi North 9.2 mph - N/A   Clear
10:35 AM 77.0 °F - 61.0 °F 58% 29.94 in 10.0 mi Calm Calm - N/A   Clear
10:55 AM 77.4 °F - 60.3 °F 55% 29.95 in 10.0 mi North 10.4 mph 17.3 mph N/A   Clear
12:55 PM 80.6 °F 81.1 °F 59.4 °F 48% 29.95 in 10.0 mi North 10.4 mph 17.3 mph N/A   Clear
1:15 PM 81.5 °F 81.8 °F 59.5 °F 47% 29.95 in 10.0 mi NW 12.7 mph 18.4 mph N/A   Clear
1:55 PM 81.5 °F 81.7 °F 59.0 °F 46% 29.95 in 10.0 mi North 10.4 mph 16.1 mph N/A   Clear
2:15 PM 81.5 °F 81.6 °F 58.5 °F 45% 29.95 in 10.0 mi NNW 10.4 mph 17.3 mph N/A   Clear
2:35 PM 82.2 °F 82.3 °F 58.6 °F 45% 29.96 in 10.0 mi North 10.4 mph - N/A   Clear
2:55 PM 82.4 °F 82.5 °F 58.8 °F 45% 29.96 in 10.0 mi North 8.1 mph - N/A   Clear
3:15 PM 82.8 °F 82.5 °F 57.9 °F 43% 29.95 in 10.0 mi NW 9.2 mph - N/A   Scattered Clouds
3:55 PM 81.9 °F 81.7 °F 57.2 °F 43% 29.95 in 10.0 mi North 6.9 mph - N/A   Clear
4:15 PM 81.7 °F 81.3 °F 55.9 °F 41% 29.96 in 10.0 mi North 8.1 mph - N/A   Scattered Clouds
4:35 PM 81.9 °F 81.7 °F 57.4 °F 43% 29.96 in 10.0 mi NNW 10.4 mph - N/A   Mostly Cloudy
4:55 PM 82.4 °F 82.0 °F 57.4 °F 42% 29.96 in 10.0 mi Calm Calm - N/A   Scattered Clouds
5:15 PM 82.6 °F 82.2 °F 57.0 °F 42% 29.96 in 10.0 mi WNW 6.9 mph - N/A   Scattered Clouds
5:35 PM 82.4 °F 82.0 °F 57.4 °F 42% 29.97 in 10.0 mi WNW 11.5 mph - N/A   Clear
5:55 PM 81.9 °F 81.2 °F 54.7 °F 39% 29.97 in 10.0 mi Calm Calm - N/A   Clear
6:15 PM 81.7 °F 81.6 °F 57.6 °F 44% 29.97 in 10.0 mi Calm Calm - N/A   Mostly Cloudy
6:35 PM 81.3 °F 81.3 °F 57.2 °F 44% 29.97 in 10.0 mi WNW 8.1 mph - N/A   Scattered Clouds
6:55 PM 80.2 °F 80.7 °F 58.1 °F 47% 29.98 in 10.0 mi Calm Calm - N/A   Scattered Clouds
7:15 PM 79.7 °F - 57.2 °F 46% 29.98 in 10.0 mi Calm Calm - N/A   Clear
7:35 PM 79.3 °F - 57.2 °F 47% 29.98 in 10.0 mi Calm Calm - N/A   Clear
7:55 PM 78.3 °F - 58.6 °F 51% 29.98 in 10.0 mi Calm Calm - N/A   Clear
8:15 PM 78.3 °F - 58.5 °F 50% 29.99 in 10.0 mi Calm Calm - N/A   Clear
9:15 PM 76.8 °F - 59.5 °F 55% 29.99 in 10.0 mi Calm Calm - N/A   Clear
9:35 PM 74.8 °F - 60.3 °F 60% 30.00 in 10.0 mi Calm Calm - N/A   Clear
9:55 PM 74.3 °F - 60.6 °F 62% 30.00 in 10.0 mi Calm Calm - N/A   Clear
10:15 PM 73.4 °F - 60.8 °F 65% 30.00 in 10.0 mi Calm Calm - N/A   Clear
10:35 PM 73.4 °F - 60.8 °F 65% 30.01 in 10.0 mi Calm Calm - N/A   Clear
10:55 PM 72.9 °F - 60.8 °F 66% 30.01 in 10.0 mi Calm Calm - N/A   Clear
11:15 PM 72.5 °F - 60.8 °F 67% 30.01 in 10.0 mi Calm Calm - N/A   Clear
11:35 PM 72.0 °F - 61.0 °F 68% 30.02 in 10.0 mi Calm Calm - N/A   Clear
11:55 PM 71.4 °F - 60.8 °F 69% 30.02 in 10.0 mi Calm Calm - N/A   Clear